Location: Caltech
(34.1382°N, 118.1253°W)
Time: 09:36:31
(UTC-07:00)

Daily predictions for brighter satellites

Satellite Brightness Start Highest point End
(mag) Time Altitude Azimuth Time Altitude Azimuth Time Altitude Azimuth
Cosmos 1725 Rocket 4.5 20:12:11 10° SSE 20:17:52 40° E 20:23:35 10° NNE
Cosmos 332 Rocket 4.3 20:13:22 10° SSW 20:18:07 67° WNW 20:22:56 10° N
Cosmos 1184 Rocket 2.8 20:16:57 10° S 20:20:16 67° E 20:23:36 10° NNE
YAOGAN 6 3.0 20:17:44 10° SSE 20:21:17 46° ENE 20:24:50 10° N
Cosmos 1656 4.0 20:17:42 10° NNW 20:23:18 72° WSW 20:28:48 10° SSE
NOSS 3-2 (A) 3.4 20:18:35 10° SSW 20:24:09 56° ESE 20:30:15 10° NE
NOSS 3-2 (C) 3.7 20:23:38 10° S 20:28:59 41° ESE 20:34:46 10° NE
Cosmos 1500 3.7 20:25:33 10° N 20:29:15 43° E 20:32:56 10° SSE
USA 234 3.3 20:23:45 10° NE 20:30:21 77° SE 20:36:54 10° SW
Cosmos 1697 Rocket 2.7 20:25:55 10° NNW 20:31:37 85° ENE 20:37:15 10° SSE
Cosmos 2208 Rocket 4.5 20:26:53 10° SSE 20:31:40 38° E 20:36:25 10° NE
DNEPR-1 R/B 3.4 20:28:50 10° SSW 20:32:58 78° ESE 20:37:30 10° NNE
Cosmos 1378 Rocket 4.0 20:30:02 10° SSE 20:34:04 40° E 20:38:07 10° NNE
COSMOS 2487 2.4 20:30:45 10° SSW 20:34:14 90° WNW 20:37:45 10° NNE
Cosmos 1674 Rocket 3.5 20:30:34 10° S 20:34:59 77° E 20:39:28 10° N
Cosmos 44 Rocket 3.5 20:32:01 10° NNW 20:37:14 90° WNW 20:42:26 10° SSE
Okean 1 3.8 20:34:33 10° SSE 20:38:21 41° E 20:42:12 10° NNE
Okean 1 Rocket 3.8 20:35:39 10° NNE 20:39:36 33° E 20:43:14 12° SE
Cosmos 1777 Rocket 4.2 20:35:48 10° NNW 20:41:00 75° WSW 20:46:10 10° S
Cosmos 1802 Rocket 4.3 20:35:12 10° SSW 20:41:28 74° W 20:47:52 10° N
Cosmos 1812 3.8 20:38:32 10° SSW 20:42:15 48° W 20:46:00 10° N
Cosmos 1939 Rocket 2.9 20:38:25 10° SSE 20:42:29 80° ENE 20:46:38 10° N
Envisat 3.8 20:37:40 10° S 20:42:36 53° W 20:47:34 10° NNW
Cosmos 1666 4.3 20:41:08 10° NNE 20:43:58 19° ENE 20:45:53 14° ESE
Cosmos 1980 Rocket 2.3 20:38:48 10° NNW 20:44:24 60° ENE 20:49:39 12° SSE
ERS-2 2.1 20:43:47 10° SSE 20:47:27 76° ENE 20:51:09 10° N
ISS -1.7 20:48:03 10° WSW 20:51:00 30° NW 20:53:56 10° NNE
Cosmos 1743 4.2 20:48:13 10° NNE 20:51:11 21° ENE 20:52:48 16° ESE
Okean 3 3.8 20:48:19 10° SSW 20:52:35 70° W 20:56:53 10° N
Resurs 01 Rocket 1.6 20:49:50 10° SSE 20:54:14 80° ENE 20:58:39 10° N
CENTAUR R/B 3.2 20:51:12 10° SSE 20:55:55 27° ESE 21:01:05 10° NE
Thor Agena Rocket 4.2 20:51:21 10° N 20:56:32 60° WNW 21:01:38 10° SSW
Meteor 1-18 Rocket 4.3 20:50:45 10° S 20:56:33 83° E 21:02:28 10° N
Cosmos 2233 Rocket 4.1 20:53:10 10° SSE 20:59:06 55° E 21:05:07 10° NNE
Abrixas rocket 2.9 20:56:57 10° WSW 21:00:06 55° NW 21:03:17 10° NE
Cosmos 304 Rocket 3.9 20:55:30 10° SSW 21:00:19 78° WNW 21:05:09 10° NNE
BREEZE-M DEB (TANK) 3.5 21:02:47 10° NNW 21:04:57 31° NE 21:07:05 18° E
Meteor 2-4 Rocket 4.5 21:04:15 19° SE 21:07:09 30° E 21:11:52 10° NNE
ATLAS 3B R/B 3.7 21:00:37 10° SW 21:07:39 53° NW 21:14:27 10° NNE
Cosmos 2084 3.4 21:06:27 10° SSW 21:10:49 61° ESE 21:14:56 10° NE
Cosmos 1340 Rocket 4.2 21:14:05 21° E 21:14:13 21° E 21:17:17 10° NE
Tiangong 2 2.8 21:11:48 10° W 21:14:42 33° NNW 21:17:36 10° NE
Cosmos 1816 Rocket 4.5 21:09:14 10° N 21:15:37 81° E 21:21:19 13° S
GPS 2-04 Rocket1 2.9 21:13:10 10° W 21:17:21 64° SSW 21:19:17 30° SE
USA 186 4.3 21:18:26 10° SW 21:20:44 19° W 21:23:08 10° NW
Spot 2 Rocket 3.6 21:17:06 14° S 21:21:29 74° WSW 21:26:31 10° NNW
Cosmos 468 Rocket 4.2 21:21:54 10° SSW 21:27:11 76° WNW 21:32:26 10° NNE
Cosmos 292 Rocket 4.2 21:29:27 33° SE 21:30:45 39° ESE 21:35:11 10° NNE
Cosmos 1937 Rocket 4.1 21:26:57 10° N 21:31:47 40° ENE 21:33:29 31° ESE
Timation 2 Rocket 4.1 21:26:27 10° SSW 21:32:23 73° WNW 21:38:25 10° NNE
Meteor 1-13 Rocket 4.3 21:28:06 17° S 21:32:35 65° E 21:38:28 10° NNE
Cosmos 540 Rocket 4.4 21:34:28 27° E 21:34:28 27° E 21:38:38 10° NE
Cosmos 2322 Rocket 2.6 21:29:15 10° N 21:34:39 47° ENE 21:36:49 32° ESE
Cosmos 1763 Rocket 3.4 21:31:15 10° SSW 21:36:33 81° ESE 21:41:52 10° NNE
OAO 1 Rocket 4.4 21:31:24 10° W 21:36:45 84° N 21:40:22 21° E
ARGOS 3.1 21:34:33 30° SSE 21:37:12 68° ENE 21:42:34 10° N
Cosmos 841 Rocket 3.5 21:37:35 26° S 21:40:23 58° ESE 21:45:33 10° NNE
ATLAS CENTAUR R/B 2.8 21:36:46 10° NW 21:41:02 37° WSW 21:43:37 21° SSW
Helios 1B rocket 4.2 21:37:54 10° NE 21:39:44 18° ENE 21:39:44 18° ENE
Cosmos 1975 3.4 21:38:10 10° NNW 21:42:07 56° W 21:44:05 27° SSW
SL-16 R/B 2.3 21:37:07 10° NNW 21:42:44 60° ENE 21:44:49 37° SE
Delta 7925 Rocket 4.0 21:40:04 10° WSW 21:44:07 32° S 21:44:07 32° S
USA 245 4.0 21:46:59 33° NE 21:46:59 33° NE 21:50:06 10° N
ATLAS CENTAUR R/B 4.5 21:41:18 10° WSW 21:47:15 64° NW 22:05:25 10° NE
Cosmos 1464 Rocket 4.1 21:44:37 31° SSE 21:47:33 57° E 21:53:48 10° NNE
Atlas Centaur 2 2.1 21:48:29 10° W 21:51:07 32° SW 21:51:07 32° SW
Cosmos 858 Rocket 4.4 21:48:52 10° NNW 21:54:05 78° ENE 21:55:34 47° SSE
Cosmos 1356 4.4 22:00:34 39° NNE 22:00:34 39° NNE 22:02:57 10° NNE
SPOT 1/Viking Rocket 4.1 21:59:44 39° E 22:00:26 41° ENE 22:05:16 10° N
H-2A R/B 1.9 22:02:53 49° S 22:04:14 83° W 22:09:15 10° NNW
Cosmos 1891 Rocket 4.4 22:03:51 41° SSE 22:06:08 72° E 22:12:25 10° N
Cosmos 1455 Rocket 2.9 22:02:47 10° N 22:07:09 78° E 22:07:19 76° ESE
ERS-1 Rocket 2.8 22:07:52 58° SSE 22:08:54 88° ENE 22:13:56 10° NNW
SPOT 5 3.0 22:10:13 50° ENE 22:10:13 50° ENE 22:14:24 10° N
MetOp-B 4.3 22:08:24 42° S 22:10:11 69° WSW 22:15:33 10° NNW
SL-08 RB Rocket 3.9 22:11:31 52° SSW 22:12:20 64° W 22:16:51 10° NNW
Cosmos 1898 Rocket 4.0 22:07:44 10° NNW 22:12:54 54° WSW 22:14:33 38° SSW
Cosmos 1242 Rocket 4.1 22:10:17 10° NNW 22:13:31 30° W 22:14:01 29° WSW
DMSP B5D2-2 4.0 22:12:24 10° NNE 22:17:43 86° WNW 22:19:10 50° SSW
Terra 2.8 22:25:19 35° ENE 22:25:19 35° ENE 22:29:07 10° N
CZ-4C R/B 4.4 22:19:40 10° N 22:25:28 25° NE 22:28:51 19° E
Cosmos 2360 Rocket 2.4 22:20:13 10° N 22:25:45 54° ENE 22:26:09 53° E
BREEZE M DEB (TANK) 2.8 22:19:50 10° NW 22:26:29 61° NNE 22:26:29 61° NNE
Lacrosse 5 rocket 3.4 22:25:44 10° N 22:28:49 19° NE 22:28:53 19° NE
Cosmos 2219 Rocket 4.1 22:27:17 10° NNE 22:30:45 16° ENE 22:31:19 16° ENE
Meteor 1-23 Rocket 4.3 22:31:09 50° SSW 22:32:33 72° W 22:38:07 10° N
SL-19 R/B 4.5 22:33:18 59° ESE 22:33:59 63° ENE 22:40:16 10° N
Cosmos 1544 Rocket 4.2 22:29:55 10° NNW 22:34:10 48° W 22:34:18 48° W
CZ-2C R/B 3.9 22:30:12 10° NE 22:33:39 28° ENE 22:33:39 28° ENE
Helios 1A 3.5 22:36:12 56° NW 22:36:12 56° NW 22:39:40 10° NNW
Cosmos 836 Rocket 4.4 22:38:04 80° NE 22:38:04 80° NE 22:43:02 10° NNE
Cosmos 2150 Rocket 4.4 22:39:52 10° NNW 22:45:06 56° WSW 22:45:19 55° WSW
Cosmos 2333 Rocket 3.9 22:41:15 10° NNE 22:45:20 20° ENE 22:45:38 20° ENE
CENTAUR R/B 3.6 22:40:36 10° WSW 22:46:08 42° NW 22:52:27 10° NNE
COSMOS 2428 3.7 22:43:41 10° N 22:48:38 33° ENE 22:48:38 33° ENE
SJ 16-02 2.3 22:45:58 10° N 22:49:06 43° N 22:49:06 43° N
Tiangong 2 4.3 22:49:52 10° NW 22:51:06 15° NNW 22:51:06 15° NNW
Nimbus 7 Rocket 4.3 22:51:53 10° NNE 22:57:41 86° ENE 22:57:41 86° ENE
Cosmos 1092 Rocket 4.0 22:53:31 10° N 22:59:40 65° ENE 22:59:40 65° ENE
Nadezhda 4 Rocket 3.9 22:58:03 10° N 23:04:21 76° W 23:04:40 74° WSW
Cosmos 2297 Rocket 4.3 23:11:57 15° ENE 23:11:57 15° ENE 23:13:07 10° NE
Cosmos 2227 Rocket 4.1 23:14:50 18° ENE 23:14:50 18° ENE 23:16:31 10° NE
CZ-2C R/B 3.5 23:12:46 62° N 23:12:46 62° N 23:17:22 10° N
Cosmos 2322 3.9 23:08:11 10° NNW 23:13:13 68° NW 23:13:13 68° NW
Helios 1B rocket 4.5 23:12:57 10° NNW 23:16:05 24° WNW 23:16:05 24° WNW
Cosmos 2322 Rocket 4.1 23:14:26 10° WNW 23:18:14 19° W 23:18:39 19° WSW
Cosmos 2237 Rocket 3.9 23:18:00 10° N 23:22:05 22° NE 23:22:05 22° NE
COSMOS 2455 4.5 23:27:16 23° ENE 23:27:16 23° ENE 23:29:43 10° NE
SL-16 R/B 4.3 23:23:09 10° WNW 23:26:13 15° W 23:26:42 15° WSW
Cosmos 2279 Rocket 4.4 23:31:34 54° NE 23:31:34 54° NE 23:36:31 10° NNE
Cosmos 2026 Rocket 4.2 23:25:32 10° N 23:30:44 62° NNE 23:30:44 62° NNE
Cosmos 2219 3.8 23:40:37 54° NNW 23:40:37 54° NNW 23:45:29 10° NNE
